TimeEDT,TemperatureF,Dew PointF,Humidity,Sea Level PressureIn,VisibilityMPH,Wind Direction,Wind SpeedMPH,Gust SpeedMPH,PrecipitationIn,Events,Conditions,WindDirDegrees,DateUTC
12:15 AM,42.8,37.4,81,30.28,10.0,SW,4.6,-,N/A,,Clear,220,2012-10-14 04:15:00
1:00 AM,41.0,37.4,87,30.28,10.0,SW,3.5,-,N/A,,Clear,230,2012-10-14 05:00:00
1:20 AM,42.8,39.2,87,30.28,10.0,SW,3.5,-,N/A,,Clear,230,2012-10-14 05:20:00
1:40 AM,42.8,41.0,93,30.28,10.0,Calm,Calm,-,N/A,,Clear,0,2012-10-14 05:40:00
2:00 AM,44.6,39.2,81,30.28,10.0,Calm,Calm,-,N/A,,Clear,0,2012-10-14 06:00:00
2:25 AM,44.6,41.0,87,30.26,10.0,South,3.5,-,N/A,,Clear,180,2012-10-14 06:25:00
2:45 AM,44.6,41.0,87,30.25,10.0,Calm,Calm,-,N/A,,Clear,0,2012-10-14 06:45:00
3:05 AM,44.6,41.0,87,30.24,10.0,SSW,4.6,-,N/A,,Clear,200,2012-10-14 07:05:00
3:25 AM,46.4,42.8,87,30.24,10.0,Calm,Calm,-,N/A,,Clear,0,2012-10-14 07:25:00
3:50 AM,46.4,42.8,87,30.23,10.0,SSW,5.8,-,N/A,,Clear,210,2012-10-14 07:50:00
4:10 AM,46.4,42.8,87,30.23,10.0,SSW,5.8,-,N/A,,Clear,210,2012-10-14 08:10:00
4:30 AM,46.4,42.8,87,30.24,10.0,SW,8.1,-,N/A,,Clear,220,2012-10-14 08:30:00
4:50 AM,46.4,42.8,87,30.23,10.0,South,3.5,-,N/A,,Mostly Cloudy,180,2012-10-14 08:50:00
5:15 AM,46.4,42.8,87,30.23,10.0,Calm,Calm,-,N/A,,Overcast,0,2012-10-14 09:15:00
5:35 AM,46.4,42.8,87,30.23,10.0,South,4.6,-,N/A,,Overcast,190,2012-10-14 09:35:00
5:55 AM,48.2,44.6,87,30.23,10.0,SSW,3.5,-,N/A,,Overcast,210,2012-10-14 09:55:00
6:20 AM,48.2,44.6,87,30.24,10.0,WSW,5.8,-,N/A,,Overcast,240,2012-10-14 10:20:00
6:40 AM,48.2,44.6,87,30.23,10.0,South,4.6,-,N/A,,Overcast,170,2012-10-14 10:40:00
6:50 AM,48.2,44.6,87,30.23,10.0,South,4.6,-,N/A,,Overcast,170,2012-10-14 10:50:00
6:53 AM,48.2,44.6,87,30.22,10.0,SSW,4.6,-,N/A,,Scattered Clouds,200,2012-10-14 10:53:00
7:55 AM,50.0,44.6,82,30.22,10.0,SSW,3.5,-,N/A,,Scattered Clouds,200,2012-10-14 11:55:00
8:47 AM,53.6,46.4,77,30.24,10.0,SW,9.2,-,N/A,,Scattered Clouds,220,2012-10-14 12:47:00
9:55 AM,51.8,46.4,82,30.23,10.0,SW,4.6,-,N/A,,Overcast,220,2012-10-14 13:55:00
10:50 AM,53.6,48.2,82,30.22,10.0,SW,4.6,-,N/A,,Overcast,220,2012-10-14 14:50:00
11:50 AM,60.8,51.8,72,30.20,10.0,SW,8.1,-,N/A,,Mostly Cloudy,230,2012-10-14 15:50:00
12:45 PM,64.4,51.8,64,30.16,10.0,SW,9.2,-,N/A,,Scattered Clouds,220,2012-10-14 16:45:00
1:50 PM,69.8,53.6,56,30.01,10.0,SW,9.2,-,N/A,,Scattered Clouds,220,2012-10-14 17:50:00
2:50 PM,73.4,53.6,50,30.08,10.0,SW,9.2,-,N/A,,Clear,220,2012-10-14 18:50:00
3:50 PM,73.4,53.6,50,30.05,10.0,SSW,12.7,19.6,N/A,,Clear,210,2012-10-14 19:50:00
4:55 PM,73.4,55.4,53,30.03,10.0,SSW,12.7,17.3,N/A,,Clear,200,2012-10-14 20:55:00
5:45 PM,71.6,55.4,57,30.02,10.0,SSW,9.2,-,N/A,,Clear,200,2012-10-14 21:45:00
6:45 PM,68.0,55.4,64,30.00,10.0,South,8.1,16.1,N/A,,Clear,190,2012-10-14 22:45:00
7:50 PM,66.2,55.4,68,30.00,10.0,South,5.8,-,N/A,,Clear,180,2012-10-14 23:50:00
9:10 PM,64.4,53.6,68,29.97,10.0,South,11.5,16.1,N/A,,Clear,180,2012-10-15 01:10:00
9:30 PM,64.4,53.6,68,29.96,10.0,South,8.1,-,N/A,,Clear,180,2012-10-15 01:30:00
9:50 PM,64.4,53.6,68,29.96,10.0,South,8.1,-,N/A,,Clear,180,2012-10-15 01:50:00
10:15 PM,64.4,53.6,68,29.95,10.0,SSE,5.8,-,N/A,,Clear,160,2012-10-15 02:15:00
10:35 PM,64.4,53.6,68,29.95,10.0,South,9.2,-,N/A,,Clear,180,2012-10-15 02:35:00
10:55 PM,62.6,53.6,72,29.95,10.0,South,9.2,-,N/A,,Clear,180,2012-10-15 02:55:00
11:15 PM,64.4,55.4,73,29.95,10.0,South,10.4,17.3,N/A,,Clear,190,2012-10-15 03:15:00
11:40 PM,64.4,55.4,73,29.95,10.0,SSW,8.1,-,N/A,,Clear,200,2012-10-15 03:40:00